EW1557 Weather Reports


time (UTC)temp
F
wind
direction
speed
knots
gust
knots
rain 1hr
in
rain 24hr
in
rain mn
in
humidity
%
barometer
mb
20260507134544 66 323 0.0 0.9 0.01 0.02 0.02 1 1012.5
20260507133046 66 228 0.0 1.7 0.01 0.02 0.02 1 1012.4
20260507131545 66 223 0.0 0.9 0.01 0.02 0.02 1 1012.9
20260507130035 66 223 0.0 2.6 0.00 0.01 0.01 1 1014.2
20260507124527 66 293 0.0 0.9 0.00 0.01 0.01 1 1011.7
20260507123023 0 0.0 0.0 0.00 0.01 0.01 1010.7
20260507121519 0 0.0 0.0 0.00 0.01 0.01 1010.4
20260507120015 0 0.0 0.0 0.00 0.01 0.01 1009.4
20260507114511 0 0.0 0.0 0.00 0.01 0.01 1011.6
20260507113006 0 0.0 0.0 0.00 0.01 0.01 1013.0
20260507111503 0 0.0 0.0 0.01 0.01 0.01 1012.7
20260507104601 71 252 0.0 2.6 0.01 0.01 0.01 1 1013.5
20260507103117 71 252 0.0 0.0 0.01 0.01 0.01 1 1013.5
20260507101545 71 252 0.0 0.0 0.00 0.00 0.00 1 1014.1
20260507100052 71 252 0.0 0.0 0.00 0.00 0.00 1 1014.7
20260507094538 71 252 0.0 0.0 0.00 0.00 0.00 1 1014.2
20260507093032 71 252 0.0 0.0 0.00 0.00 0.00 1 1014.4
20260507091536 72 252 0.0 0.0 0.00 0.00 0.00 1 1013.6
20260507090027 72 252 0.0 0.0 0.00 0.00 0.00 1 1013.4
20260507084535 72 252 0.0 0.0 0.00 0.00 0.00 1 1012.7
20260507083014 72 252 0.0 0.0 0.00 0.00 0.00 1 1012.4
20260507081513 73 252 0.0 0.0 0.00 0.00 0.00 1 1012.2
20260507080006 73 252 0.0 0.0 0.00 0.00 0.00 1 1012.0
20260507074501 73 252 0.0 0.0 0.00 0.00 0.00 1 1011.7
20260507073057 74 252 0.0 0.0 0.00 0.00 0.00 1 1011.4
20260507071554 74 252 0.0 0.0 0.00 0.00 0.00 1 1012.2
20260507064551 74 174 0.0 0.0 0.00 0.00 0.00 1 1012.2
20260507063040 75 246 0.0 0.0 0.00 0.00 0.00 1 1012.3
20260507061535 75 296 0.0 0.0 0.00 0.00 0.00 1 1012.7
20260507060038 75 221 0.0 0.0 0.00 0.00 0.00 1 1012.8
20260507054528 75 309 0.0 0.0 0.00 0.00 0.00 1 1012.8
20260507053025 75 17 0.0 0.0 0.00 0.00 0.00 1 1013.1
20260507051520 75 108 0.0 0.0 0.00 0.00 0.00 1 1013.5
20260507050035 75 66 0.0 0.0 0.00 0.00 0.00 1 1013.7
20260507044511 75 71 0.0 0.0 0.00 0.00 0.00 1 1013.5
20260507043007 74 273 0.0 0.0 0.00 0.00 0.00 1 1013.5
20260507041502 74 339 0.0 0.0 0.00 0.00 0.00 1 1013.8
20260507040057 74 284 0.0 0.0 0.00 0.00 0.00 1 1013.8
20260507034603 74 83 0.0 0.0 0.00 0.00 0.00 1 1013.6
20260507033057 74 243 0.0 0.0 0.00 0.00 0.00 1 1013.6
20260507031555 74 192 0.0 0.0 0.00 0.00 0.00 1 1013.6
20260507030056 74 238 0.0 0.0 0.00 0.00 0.00 1 1013.7
20260507024556 74 213 0.0 0.0 0.00 0.00 0.00 1 1013.2
20260507023049 74 330 0.0 0.0 0.00 0.00 0.00 1 1013.0
20260507021557 74 159 0.0 0.0 0.00 0.00 0.00 1 1013.1
20260507020054 74 285 0.0 0.0 0.00 0.00 0.00 1 1013.1
20260507014542 74 194 0.0 0.0 0.00 0.00 0.00 1 1013.4
20260507013036 75 338 0.0 0.0 0.00 0.00 0.00 1 1013.7
20260507011527 75 71 0.0 0.0 0.00 0.00 0.00 1 1013.9
20260507010031 75 265 0.0 0.0 0.00 0.00 0.00 1 1014.0
20260507004518 75 327 0.0 0.0 0.00 0.00 0.00 1 1014.0
20260507003014 76 98 0.0 0.0 0.00 0.00 0.00 1 1013.9
20260507001508 76 289 0.0 0.0 0.00 0.00 0.00 1 1013.9
20260507000007 77 273 0.0 0.0 0.00 0.00 0.00 1 1013.5
20260506234623 77 246 0.0 0.0 0.00 0.00 0.00 1 1013.4
20260506233056 78 53 0.0 0.0 0.00 0.00 0.00 1 1013.5
20260506231555 78 259 0.0 0.0 0.00 0.00 0.00 1 1013.4
20260506230101 79 275 0.9 3.5 0.00 0.00 0.00 1 1013.3
20260506224551 79 269 0.9 5.2 0.00 0.00 0.00 1 1013.2
20260506223045 79 355 0.9 4.3 0.00 0.00 0.00 1 1013.3
20260506221551 80 272 0.0 4.3 0.00 0.00 0.00 1 1013.7
20260506220043 80 69 0.0 2.6 0.00 0.00 0.00 1 1013.6
20260506214532 80 350 0.9 6.1 0.00 0.00 0.00 1 1013.4
20260506213028 80 75 0.9 4.3 0.00 0.00 0.00 1 1013.4
20260506211537 81 296 0.9 2.6 0.00 0.00 0.00 1 1013.6
20260506210031 81 257 0.9 3.5 0.00 0.00 0.00 1 1013.9
20260506204521 81 271 0.0 3.5 0.00 0.00 0.00 1 1013.9
20260506203012 81 283 0.9 5.2 0.00 0.00 0.00 1 1014.0
20260506201510 81 263 0.9 3.5 0.00 0.00 0.00 1 1014.0
20260506200009 82 336 0.9 4.3 0.00 0.00 0.00 1 1014.3
20260506194559 82 123 0.9 6.1 0.00 0.00 0.00 1 1014.3
20260506193057 82 288 0.9 6.1 0.00 0.00 0.00 1 1014.4
20260506191555 83 240 0.9 5.2 0.00 0.00 0.00 1 1014.6
20260506190046 84 265 1.7 4.3 0.00 0.00 0.00 1 1014.8
20260506184541 84 101 0.0 5.2 0.00 0.00 0.00 1 1015.0
20260506183036 85 296 0.9 4.3 0.00 0.00 0.00 1 1015.1
20260506181541 84 281 0.0 0.0 0.00 0.00 0.00 1 1015.1
20260506180027 85 68 0.0 0.0 0.00 0.00 0.00 1 1015.3
20260506174523 84 283 0.0 0.0 0.00 0.00 0.00 1 1015.6
20260506173026 84 276 0.0 1.7 0.00 0.00 0.00 1 1015.9
20260506171516 82 288 0.0 2.6 0.00 0.00 0.00 1 1016.3
20260506170009 81 341 0.0 0.0 0.00 0.00 0.00 1 1016.3
20260506164507 80 227 0.0 0.0 0.00 0.00 0.00 1 1016.6
20260506163101 80 288 0.0 0.0 0.00 0.00 0.00 1 1016.6
20260506161556 80 284 0.0 0.0 0.00 0.00 0.00 1 1016.7
20260506160052 79 256 0.0 0.0 0.00 0.00 0.00 1 1016.8
20260506154606 78 316 0.0 2.6 0.00 0.00 0.00 1 1016.9
20260506153042 78 294 1.7 5.2 0.00 0.00 0.00 1 1016.9
20260506151538 77 302 0.0 2.6 0.00 0.00 0.00 1 1017.0
20260506150033 76 174 0.0 2.6 0.00 0.00 0.00 1 1017.2
20260506144529 76 259 0.0 0.9 0.00 0.00 0.00 1 1016.9
20260506143028 75 262 0.0 2.6 0.00 0.00 0.00 1 1016.7
20260506141520 73 258 0.9 4.3 0.00 0.00 0.00 1 1016.6
20260506140019 72 300 0.9 4.3 0.00 0.00 0.00 1 1016.5